This demonstration page uses our WeatherBlox Daily Observations layout. Learn more.

Left ArrowRight Arrow

39.51506, -84.39828

Hourly Observations for January 25, 2015

Temp ( °F °C ) Dew Point ( °F °C ) Humidity (%) Winds ( mph kmh ) Pressure ( in mb ) Visibility ( mi km ) Precip ( " mm )
12:15 am 00:15 Partly Cloudy 37 2.6 29 -1.7 74 74 SSW 7 11 29.80 1009 10 16 0.00 0.00
12:35 am 00:35 Clear 37 2.6 29 -1.5 75 75 SSW 5 7 29.83 1010 10 16 0.00 0.00
12:55 am 00:55 Clear 36 2.3 29 -1.8 75 75 S 5 7 29.83 1010 10 16 0.00 0.00
1:15 am 01:15 Clear 34 1.3 28 -2.4 77 77 SSW 5 7 29.85 1011 10 16 0.00 0.00
1:35 am 01:35 Clear 34 1.2 28 -2.3 78 78 SSW 5 7 29.85 1011 10 16 0.00 0.00
1:55 am 01:55 Clear 36 2 29 -1.6 77 77 S 5 7 29.80 1009 10 16 0.00 0.00
2:15 am 02:15 Partly Cloudy 35 1.9 29 -1.5 78 78 SSW 6 9 29.80 1009 10 16 0.00 0.00
2:35 am 02:35 Clear 37 2.6 30 -1 77 77 SSW 6 9 29.80 1009 10 16 0.00 0.00
2:55 am 02:55 Partly Cloudy 37 2.6 31 -0.8 79 79 SSW 7 11 29.80 1009 10 16 0.00 0.00
3:15 am 03:15 Clear 37 2.6 31 -0.8 79 79 S 5 7 29.80 1009 7 11 0.00 0.00
3:35 am 03:35 Clear 35 1.7 29 -1.5 80 80 SSW 3 6 29.80 1009 7 11 0.00 0.00
3:55 am 03:55 Clear 34 1.2 29 -1.5 82 82 SSW 5 7 29.83 1010 7 11 0.00 0.00
4:15 am 04:15 Clear 34 1.2 30 -1.2 84 84 SSW 3 6 29.83 1010 7 11 0.00 0.00
4:35 am 04:35 Clear 34 1.2 30 -1 85 85 Calm 29.80 1009 7 11 0.00 0.00
4:55 am 04:55 Hazy 32 0 28 -2.5 83 83 Calm 29.80 1009 5 8 0.00 0.00
5:15 am 05:15 Clear with Mist and Fog 34 1.2 31 -0.7 87 87 Calm 29.80 1009 5 8 0.00 0.00
5:35 am 05:35 Clear with Mist and Fog 34 1.2 31 -0.7 87 87 Calm 29.80 1009 5 8 0.00 0.00
5:55 am 05:55 Partly Cloudy with Mist and Fog 34 1.2 31 -0.6 88 88 Calm 29.80 1009 4 6 0.00 0.00
6:15 am 06:15 Partly Cloudy with Mist and Fog 32 0 28 -2 87 87 Calm 29.80 1009 4 6 0.00 0.00
6:35 am 06:35 Clear with Mist and Fog 33 0.7 30 -1.1 88 88 Calm 29.80 1009 4 6 0.00 0.00
6:55 am 06:55 Clear with Mist and Fog 32 0 28 -2 87 87 Calm 29.80 1009 4 6 0.00 0.00
7:15 am 07:15 Clear with Mist and Fog 32 0 28 -2 87 87 Calm 29.80 1009 4 6 0.00 0.00
7:35 am 07:35 Clear with Mist and Fog 34 1.2 31 -0.5 89 89 Calm 29.80 1009 4 6 0.00 0.00
7:55 am 07:55 Partly Cloudy with Mist and Fog 34 1.2 31 -0.5 89 89 Calm 29.80 1009 4 6 0.00 0.00
8:15 am 08:15 Cloudy with Mist and Fog 34 1.2 31 -0.5 89 89 Calm 29.80 1009 4 6 0.00 0.00
8:35 am 08:35 Cloudy with Mist and Fog 34 1.2 31 -0.5 89 89 Calm 29.80 1009 3 5 0.00 0.00
8:55 am 08:55 Cloudy with Mist and Fog 34 1.2 31 -0.5 89 89 NNE 5 7 29.80 1009 4 6 0.00 0.00
9:15 am 09:15 Cloudy with Mist and Fog 37 2.6 33 0.3 85 85 Calm 29.77 1008 5 8 0.00 0.00
9:35 am 09:35 Cloudy with Haze 37 2.6 32 0.1 84 84 Calm 29.80 1009 5 8 0.00 0.00
9:55 am 09:55 Cloudy 37 2.9 32 0 81 81 Calm 29.80 1009 7 11 0.00 0.00
10:15 am 10:15 Cloudy 39 4 32 0 75 75 S 3 6 29.80 1009 10 16 0.00 0.00
10:35 am 10:35 Cloudy with Light Snow 39 4 32 0.1 76 76 Calm 29.80 1009 5 8 0.00 0.00
10:55 am 10:55 Cloudy with Light Snow 39 4 34 1.3 83 83 ENE 5 7 29.80 1009 3 5 0.00 0.00
11:15 am 11:15 Cloudy with Light Snow 39 4 34 1 81 81 E 3 6 29.80 1009 4 6 0.00 0.00
11:35 am 11:35 Cloudy 39 4 34 1.1 82 82 E 5 7 29.77 1008 7 11 0.00 0.00
11:55 am 11:55 Cloudy 39 4 34 1.1 82 82 E 3 6 29.77 1008 7 11 0.00 0.00
12:15 pm 12:15 Cloudy 39 4.1 34 1.2 82 82 E 6 9 29.77 1008 7 11 0.00 0.00
12:35 pm 12:35 Cloudy 39 4 34 1.1 82 82 SE 3 6 29.77 1008 10 16 0.00 0.00
12:55 pm 12:55 Cloudy 39 4.1 34 1.1 81 81 SE 6 9 29.74 1007 7 11 0.00 0.00
1:15 pm 13:15 Cloudy with Light Snow 39 4 34 1.3 83 83 SE 6 9 29.74 1007 5 8 0.00 0.00
1:35 pm 13:35 Cloudy with Light Snow 39 4 34 1.3 83 83 SE 5 7 29.74 1007 4 6 0.00 0.00
1:55 pm 13:55 Cloudy with Light Snow 39 4 35 1.5 84 84 ESE 5 7 29.74 1007 4 6 0.00 0.00
2:15 pm 14:15 Cloudy with Light Snow 39 4 35 1.5 84 84 SE 3 6 29.74 1007 4 6 0.00 0.00
2:35 pm 14:35 Cloudy with Light Snow 39 4.1 35 1.7 85 85 E 6 9 29.71 1006 4 6 0.00 0.00
2:55 pm 14:55 Cloudy with Light Snow 40 4.3 35 1.9 85 85 E 6 9 29.71 1006 4 6 0.00 0.00
3:15 pm 15:15 Cloudy with Light Snow 40 4.4 36 2 85 85 ESE 3 6 29.71 1006 5 8 0.00 0.00
3:35 pm 15:35 Cloudy with Light Snow 40 4.5 36 2.1 85 85 Calm 29.71 1006 5 8 0.00 0.00
3:55 pm 15:55 Cloudy with Mist and Fog 40 4.5 36 2 84 84 E 5 7 29.71 1006 5 8 0.00 0.00
4:15 pm 16:15 Cloudy with Light Snow 39 4.1 35 1.7 85 85 E 5 7 29.71 1006 5 8 0.00 0.00
4:35 pm 16:35 Cloudy with Light Snow 39 4 35 1.6 85 85 E 6 9 29.71 1006 4 6 0.00 0.00
4:55 pm 16:55 Cloudy with Light Snow 39 4 35 1.7 85 85 ENE 5 7 29.71 1006 4 6 0.00 0.00
5:15 pm 17:15 Cloudy with Light Snow 39 4 35 1.8 86 86 ENE 6 9 29.71 1006 4 6 0.00 0.00
5:35 pm 17:35 Cloudy with Light Snow 39 4 36 2 87 87 ENE 5 7 29.71 1006 3 5 0.00 0.00
5:55 pm 17:55 Cloudy with Light Snow 39 4 36 2 87 87 NE 6 9 29.74 1007 4 6 0.00 0.00
6:15 pm 18:15 Cloudy with Light Snow 39 4 36 2 87 87 NNE 3 6 29.74 1007 3 5 0.00 0.00
6:35 pm 18:35 Cloudy with Light Snow 39 4 36 2.1 88 88 N 5 7 29.74 1007 3 5 0.00 0.00
6:55 pm 18:55 Cloudy with Light Snow 39 4 36 2 87 87 NNE 6 9 29.77 1008 4 6 0.00 0.00
7:15 pm 19:15 Cloudy with Light Snow 39 4 36 2 87 87 N 6 9 29.77 1008 3 5 0.00 0.00
7:35 pm 19:35 Cloudy with Light Snow 39 3.9 36 2 88 88 NNE 7 11 29.77 1008 3 5 0.00 0.00
7:55 pm 19:55 Cloudy with Light Snow 37 2.6 33 0.6 87 87 NNE 9 15 29.77 1008 4 6 0.00 0.00
8:15 pm 20:15 Cloudy with Light Snow 35 1.5 32 -0.2 89 89 NNE 8 13 29.77 1008 3 5 0.00 0.00
8:35 pm 20:35 Cloudy with Light Snow 34 1.2 31 -0.5 89 89 NNE 8 13 29.80 1009 2 3 0.00 0.00
8:55 pm 20:55 Cloudy with Light Snow 34 1.2 31 -0.5 89 89 NE 9 15 29.80 1009 2 3 0.00 0.00
9:15 pm 21:15 Cloudy with Light Snow 34 1.2 31 -0.5 89 89 NNE 12 19 29.80 1009 2 3 0.00 0.00
9:35 pm 21:35 Cloudy with Light Snow 34 1.2 31 -0.5 89 89 NNE 15 24 29.80 1009 2 2 0.00 0.00
9:55 pm 21:55 Cloudy with Light Snow 32 0 28 -2.2 85 85 NNE 17 28 29.83 1010 3 4 0.00 0.00
10:15 pm 22:15 Cloudy with Light Snow 30 -1.1 26 -3.5 84 84 NNE 13 20 29.83 1010 4 6 0.00 0.00
10:35 pm 22:35 Cloudy with Snow 29 -1.5 25 -3.7 85 85 NNE 10 17 29.83 1010 1 2 0.00 0.00
10:55 pm 22:55 Cloudy with Light Snow 29 -1.5 25 -3.7 85 85 NNE 15 24 29.83 1010 1 2 0.00 0.00
11:15 pm 23:15 Cloudy with Light Snow 29 -1.5 25 -3.7 85 85 NNE 12 19 29.83 1010 2 2 0.00 0.00
11:35 pm 23:35 Cloudy with Light Snow 29 -1.5 25 -3.8 85 85 NNE 12 19 29.83 1010 3 5 0.00 0.00
11:55 pm 23:55 Cloudy with Light Snow 29 -1.5 25 -3.8 85 85 NNE 14 22 29.83 1010 3 5 0.00 0.00

Powered by AerisWeather